Regional Weather Roundup
Issued by NWS Cleveland, OH

Home | Current Version | Previous Version | Text Only | Print | Product List | Glossary Off
Versions: 1 2 3 4 5 6 7 8 9 10 11 12 13 14 15 16 17 18 19 20 21 22 23 24 25 26 27 28 29 30 31 32 33 34 35 36 37 38 39 40 41 42 43 44 45 46 47 48 49 50

000
ASUS41 KCLE 241610
RWRCLE
OHIO REGIONAL WEATHER ROUNDUP
NATIONAL WEATHER SERVICE WILMINGTON, OH
1200 PM EDT THU JUL 24 2014

NOTE: "FAIR" INDICATES FEW OR NO CLOUDS BELOW 12,000 FEET WITH NO
SIGNIFICANT WEATHER AND/OR OBSTRUCTIONS TO VISIBILITY.

OHZ001>008-015>018-024>027-034-035-043-044-241700-
   NORTHWEST OHIO

CITY           SKY/WX    TMP DP  RH WIND       PRES   REMARKS
DEFIANCE       CLOUDY    71  51  49 NE8       30.12S
FINDLAY        MOSUNNY   72  53  51 NE21      30.09F
TOLEDO EXPRESS PTSUNNY   71  48  43 NE8       30.11F
TOLEDO METCALF SUNNY     71  49  45 NE14G20   30.12S
LIMA           PTSUNNY   71  55  56 NE15G22   30.10S
$$

OHZ009>014-019>023-028>033-038-089-241700-
   NORTHEAST OHIO

CITY           SKY/WX    TMP DP  RH WIND       PRES   REMARKS
CLE-HOPKINS    PTSUNNY   69  56  62 N16       30.10R
CLE-LAKEFRONT  MOSUNNY   70  56  61 N17       30.07R
CUY CO. ARPT   PTSUNNY   68  59  73 NE14      30.08R
LORAIN-ELYRIA  MOSUNNY   70  55  59 NE17      30.09R
ASHTABULA      PTSUNNY   68  52  56 NE8       30.08R
AKRON-CANTON   PTSUNNY   69  53  56 N12       30.06R
WOOSTER        MOSUNNY   70  54  56 N10       30.07S
MANSFIELD      PTSUNNY   67  56  67 N9        30.08S
YOUNGSTOWN     PTSUNNY   68  53  58 NE10      30.05S
$$

OHZ042-051>053-060>062-070>072-077>081-241700-
  SOUTHWEST OHIO

CITY           SKY/WX    TMP DP  RH WIND       PRES   REMARKS
CINC-COVINGTON MOSUNNY   70  56  61 N9        30.07S
CINC-LUNKEN    PTSUNNY   69  56  62 N12       30.07S
HAMILTON       MOSUNNY   73  59  61 N12       30.08S
DAYTON         MOSUNNY   70  56  61 N14       30.10R
WRIGHT-PAT AFB MOSUNNY   69  56  62 N12       30.08R
DAYTON GENERAL PTSUNNY   70  57  63 N14       30.07S
WILMINGTON     PTSUNNY   69  55  60 N13       30.07R
$$

OHZ036-037-039>041-045>050-054>059-063>069-073>076-082>088-241700-
  CENTRAL AND SOUTHEAST OHIO

CITY           SKY/WX    TMP DP  RH WIND       PRES   REMARKS
COLUMBUS       MOSUNNY   74  54  49 NE12      30.04S
OSU AIRPORT    PTSUNNY   72  56  57 N12G20    30.06S
BOLTON FIELD   PTSUNNY   70  59  68 N14       30.06S
RICKENBACK AFB PTSUNNY   72  52  48 N12       30.04S
NEWARK         PTSUNNY   70  55  59 N9G17     30.04S
MARION         PTSUNNY   71  55  56 N13       30.08S
LANCASTER      MOSUNNY   72  56  57 N13       30.05R
ZANESVILLE     PTSUNNY   72  55  55 NE10      30.04R
NEW PHILLY     PTSUNNY   69  56  62 N8        30.05S
$$



USA.gov is the U.S. government's official web portal to all federal, state and local government web resources and services.